Back to catalog

STARLINK-32317

AliveCommunicationsVLEO
NORAD 60918·PAYLOAD·🇺🇸 United States

Launched Aug 31, 2024 from Cape Canaveral Space Force Station

Loading…

Next Passes (next 24 hours)

TLE

FreshSource: CelesTrak SupGP

Epoch: Sep 15, 2026, 02:11 UTC

1 60918C 24154R   26258.09145833  .00035612  00000+0  10522-2 0  2582
2 60918  53.1576 123.1830 0001263  85.9049   3.1390 15.34370988    13

Track STARLINK-32317 in real time with AllMySat

Download on the App Store